Regional Weather Roundup
Issued by NWS Cleveland, OH

Home | Current Version | Previous Version | Text Only | Print | Product List | Glossary Off
Versions: 1 2 3 4 5 6 7 8 9 10 11 12 13 14 15 16 17 18 19 20 21 22 23 24 25 26 27 28 29 30 31 32 33 34 35 36 37 38 39 40 41 42 43 44 45 46 47 48 49 50

000
ASUS41 KCLE 292302
RWRCLE
OHIO REGIONAL WEATHER ROUNDUP
NATIONAL WEATHER SERVICE CLEVELAND, OH
700 PM EDT FRI JUL 29 2016

NOTE: "FAIR" INDICATES FEW OR NO CLOUDS BELOW 12,000 FEET WITH NO
SIGNIFICANT WEATHER AND/OR OBSTRUCTIONS TO VISIBILITY.

OHZ001>008-015>018-024>027-034-035-043-044-300000-
   NORTHWEST OHIO

CITY           SKY/WX    TMP DP  RH WIND       PRES   REMARKS
DEFIANCE       CLOUDY    79  67  66 NE9       29.92S
FINDLAY        CLOUDY    75  67  76 E8        29.92S
TOLEDO EXPRESS CLOUDY    76  72  87 E8        29.92F
TOLEDO EXEC    CLOUDY    78  72  81 E13       29.94S
LIMA           CLOUDY    77  74  90 NE5       29.91S
$$

OHZ009>014-019>023-028>033-038-089-300000-
   NORTHEAST OHIO

CITY           SKY/WX    TMP DP  RH WIND       PRES   REMARKS
CLE-HOPKINS    CLOUDY    80  66  62 N9        29.95S
CLE-LAKEFRONT  CLOUDY    80  70  71 NE13      29.92S
CUY CO. ARPT   PTSUNNY   81  68  65 E12       29.94S
LORAIN-ELYRIA  PTSUNNY   76  69  79 E6        29.95R
ASHTABULA      CLOUDY    77  70  79 SE8       29.96S
AKRON-CANTON   PTSUNNY   79  68  69 N12       29.94R
WOOSTER        CLOUDY    75  65  70 N7        29.95R
MANSFIELD      CLOUDY    76  67  73 NW12      29.96R
YOUNGSTOWN     CLOUDY    72  67  84 NE5       29.96R
$$

OHZ042-051>053-060>062-070>072-077>081-300000-
  SOUTHWEST OHIO

CITY           SKY/WX    TMP DP  RH WIND       PRES   REMARKS
CINC-COVINGTON PTSUNNY   84  71  65 SW6       29.89S
CINC-LUNKEN    CLOUDY    84  74  71 S6        29.87S HX  91
HAMILTON       MOSUNNY   87  69  54 W7        29.88S HX  91
DAYTON         TSTM      70  69  97 W5        29.95R FOG
WRIGHT-PAT AFB TSTM      71  70  95 VRB3      29.92R
DAYTON GENERAL CLOUDY    78  68  71 E9        29.90S
WILMINGTON     LGT RAIN  74  70  87 W3        29.93R FOG
$$

OHZ036-037-039>041-045>050-054>059-063>069-073>076-082>088-300000-
  CENTRAL AND SOUTHEAST OHIO

CITY           SKY/WX    TMP DP  RH WIND       PRES   REMARKS
COLUMBUS       PTSUNNY   81  66  60 S6        29.90F
OSU AIRPORT    PTSUNNY   79  67  66 CALM      29.91S
BOLTON FIELD   NOT AVBL
RICKENBACK AFB MOSUNNY   80  71  75 SE3       29.90S
NEWARK         SUNNY     82  69  64 SW5       29.91R
MARION         PTSUNNY   79  63  57 NE8       29.93S
LANCASTER      MOSUNNY   80  70  71 S6        29.92R
ZANESVILLE     SUNNY     85  69  58 S8        29.92R
NEW PHILLY     MOSUNNY   85  65  51 CALM      29.92R
$$




USA.gov is the U.S. government's official web portal to all federal, state and local government web resources and services.